STAR ONE C4 (40733 NORAD) Tracking and Keplerian Element Data

This shows tracking and keplerian element data for the satellite.

Feedback or suggestion? Click here.




ElementValue
Catalog40733
NameSTAR ONE C4
Epoch Orbit1588
Epoch Day316.81887222
Epoch Year2019
RAAN80.3508
Inclination0.0586
Eccentricity0.0002515
Argument of Perigee193.108
Mean Anonmoly3.0127
Mean Motion1.00270066
Decay Rate-2.51E-06
L11 40733U 15034B 19316.81887222 -.00000251 00000-0 00000-0 0 9997
L22 40733 0.0586 80.3508 0002515 193.1080 3.0127 1.00270066 15884

Live tracking and technical data element details for STAR ONE C4 (NORAD 40733). STAR ONE C4 can be tracked NOW for your location showing map with azimuth and elevation plus other details from your city location.

Track the satellite on the map from your city or location and see movement details for azimuth, elevation, latitude, longitude, range, height, and movement on the map or in text.







IsCatalogInMostPopularTable: catalog: 40733, numindb: 439
Update: records affected: 1



GetName: 40733 STAR ONE C4

Hit Count: updated at: Wed, 13 Nov 2019 18:14:56 GMT